TimeEDT,TemperatureF,Dew PointF,Humidity,Sea Level PressureIn,VisibilityMPH,Wind Direction,Wind SpeedMPH,Gust SpeedMPH,PrecipitationIn,Events,Conditions,WindDirDegrees,DateUTC
12:15 AM,32.0,24.8,75,29.95,10.0,SSW,9.2,16.1,N/A,,Clear,210,2014-03-14 04:15:00
12:35 AM,32.0,24.8,75,29.94,10.0,SSW,6.9,-,N/A,,Clear,200,2014-03-14 04:35:00
12:55 AM,32.0,26.6,80,29.93,10.0,SW,9.2,-,N/A,,Clear,220,2014-03-14 04:55:00
1:15 AM,33.8,26.6,75,29.93,10.0,SSW,9.2,-,N/A,,Clear,210,2014-03-14 05:15:00
1:35 AM,33.8,26.6,75,29.92,10.0,SSW,6.9,-,N/A,,Clear,210,2014-03-14 05:35:00
1:55 AM,33.8,26.6,75,29.92,10.0,SSW,10.4,18.4,N/A,,Clear,210,2014-03-14 05:55:00
2:15 AM,33.8,26.6,75,29.91,10.0,SSW,8.1,17.3,N/A,,Clear,210,2014-03-14 06:15:00
2:35 AM,33.8,26.6,75,29.91,10.0,SSW,9.2,-,N/A,,Clear,210,2014-03-14 06:35:00
2:55 AM,33.8,26.6,75,29.91,10.0,SSW,6.9,-,N/A,,Clear,200,2014-03-14 06:55:00
3:15 AM,33.8,26.6,75,29.90,10.0,SSW,6.9,-,N/A,,Clear,200,2014-03-14 07:15:00
3:35 AM,33.8,26.6,75,29.89,10.0,SSW,6.9,-,N/A,,Clear,200,2014-03-14 07:35:00
3:55 AM,33.8,26.6,75,29.88,10.0,SSW,8.1,-,N/A,,Clear,210,2014-03-14 07:55:00
4:15 AM,33.8,26.6,75,29.87,10.0,SSW,6.9,-,N/A,,Clear,210,2014-03-14 08:15:00
4:35 AM,33.8,26.6,75,29.86,10.0,SSW,4.6,-,N/A,,Clear,210,2014-03-14 08:35:00
4:55 AM,33.8,26.6,75,29.85,10.0,SSW,5.8,-,N/A,,Clear,210,2014-03-14 08:55:00
5:15 AM,35.6,26.6,70,29.84,10.0,SSW,6.9,-,N/A,,Clear,200,2014-03-14 09:15:00
5:35 AM,35.6,26.6,70,29.83,10.0,SSW,5.8,-,N/A,,Clear,210,2014-03-14 09:35:00
5:55 AM,35.6,28.4,75,29.82,10.0,SSW,6.9,-,N/A,,Clear,200,2014-03-14 09:55:00
6:15 AM,35.6,28.4,75,29.81,10.0,SSW,5.8,-,N/A,,Clear,200,2014-03-14 10:15:00
6:35 AM,35.6,28.4,75,29.81,10.0,SSW,9.2,-,N/A,,Clear,200,2014-03-14 10:35:00
6:55 AM,35.6,28.4,75,29.80,10.0,SSW,5.8,-,N/A,,Clear,210,2014-03-14 10:55:00
7:10 AM,37.4,28.4,70,29.80,10.0,SSW,5.8,17.3,N/A,,Clear,210,2014-03-14 11:10:00
4:15 PM,51.8,35.6,54,29.63,10.0,WSW,19.6,31.1,N/A,,Clear,240,2014-03-14 20:15:00
4:35 PM,51.8,35.6,54,29.63,10.0,WSW,21.9,31.1,N/A,,Scattered Clouds,240,2014-03-14 20:35:00
4:55 PM,51.8,35.6,54,29.63,10.0,WSW,24.2,34.5,N/A,,Mostly Cloudy,240,2014-03-14 20:55:00
5:15 PM,51.8,37.4,58,29.64,10.0,WSW,17.3,24.2,N/A,,Scattered Clouds,250,2014-03-14 21:15:00
5:35 PM,51.8,37.4,58,29.64,10.0,WSW,16.1,24.2,N/A,,Mostly Cloudy,240,2014-03-14 21:35:00
5:55 PM,50.0,37.4,62,29.65,10.0,WSW,16.1,23.0,N/A,,Overcast,250,2014-03-14 21:55:00
6:15 PM,50.0,37.4,62,29.66,10.0,WSW,16.1,23.0,N/A,,Overcast,250,2014-03-14 22:15:00
6:35 PM,50.0,37.4,62,29.67,10.0,West,16.1,20.7,N/A,,Overcast,260,2014-03-14 22:35:00
6:55 PM,50.0,35.6,58,29.68,10.0,West,12.7,21.9,N/A,,Scattered Clouds,260,2014-03-14 22:55:00
7:15 PM,48.2,35.6,62,29.69,10.0,West,12.7,21.9,N/A,,Clear,260,2014-03-14 23:15:00
7:35 PM,46.4,33.8,62,29.71,10.0,West,13.8,24.2,N/A,,Clear,270,2014-03-14 23:35:00
7:55 PM,44.6,32.0,61,29.73,10.0,West,20.7,28.8,N/A,,Clear,270,2014-03-14 23:55:00
8:15 PM,44.6,32.0,61,29.74,10.0,West,19.6,26.5,N/A,,Clear,270,2014-03-15 00:15:00
8:35 PM,42.8,32.0,66,29.75,10.0,West,19.6,28.8,N/A,,Clear,270,2014-03-15 00:35:00
8:55 PM,42.8,32.0,66,29.76,10.0,West,16.1,25.3,N/A,,Clear,270,2014-03-15 00:55:00
9:15 PM,41.0,32.0,70,29.77,10.0,West,18.4,24.2,N/A,,Clear,270,2014-03-15 01:15:00
9:35 PM,41.0,32.0,70,29.79,10.0,West,18.4,24.2,N/A,,Clear,280,2014-03-15 01:35:00
9:55 PM,41.0,32.0,70,29.80,10.0,West,17.3,25.3,N/A,,Clear,280,2014-03-15 01:55:00
10:15 PM,39.2,32.0,75,29.81,10.0,West,12.7,-,N/A,,Clear,280,2014-03-15 02:15:00
10:35 PM,37.4,32.0,81,29.82,10.0,West,16.1,20.7,N/A,,Clear,280,2014-03-15 02:35:00
10:55 PM,37.4,32.0,81,29.83,10.0,West,15.0,18.4,N/A,,Clear,280,2014-03-15 02:55:00
11:15 PM,37.4,32.0,81,29.83,10.0,West,11.5,-,N/A,,Clear,270,2014-03-15 03:15:00
11:35 PM,35.6,32.0,87,29.84,10.0,West,10.4,-,N/A,,Clear,270,2014-03-15 03:35:00
11:55 PM,35.6,32.0,87,29.84,10.0,West,9.2,-,N/A,,Clear,260,2014-03-15 03:55:00